Location: Newark
(48.6461°N, 4.3644°W)
Time: 08:46:32
(UTC+00:00)

Altair - Pass Details

Date: 21 January 2021
Orbit: 1501 x 1682 km, 47.2° (Epoch: 24 February)

Event Time Altitude Azimuth Distance (km) Brightness Sun altitude
Rises 06:13:03 0° 225° (SW) 4,873 9.8 -17.3°
Reaches altitude 10° 06:16:16 10° 221° (SW) 3,905 9.3 -16.8°
Maximum altitude 06:25:53 53° 148° (SSE) 1,996 8.3 -15.2°
Drops below altitude 10° 06:35:36 10° 76° (ENE) 3,943 10.6 -13.7°
Sets 06:38:50 0° 72° (ENE) 4,923 11.2 -13.1°
